DW8626 Madrid ES current weather conditions

sailwx.info

Wind from 076 at 2 knots gusting 7

Air temperature 17.2° C
Dewpoint 9.9° C

Last reported at 2016-Sep-26 03:47 UTC.
Time now 2016-Sep-26 05:25 UTC

Location: N 40°29' W 003°43'.
View on Google Maps.

See reports from other nearby stations

  
Tides and Currents Weather Stations Pressure Air Temp Water Temp Dewpoint Dewpoint Depression Visibility Wind Speed Wind Dir Waves Ship Positions
date/time (UTC)wind fromknots sea level pressurealtimeterstation pressurevisibilityair tempwater tempwave heightnotes
2016-Sep-26 03:47 076 2 gusting 7 17.2
2016-Sep-26 03:32 058 0 gusting 7 17.8
2016-Sep-26 03:17 014 6 gusting 10 17.8
2016-Sep-26 03:02 039 5 gusting 7 17.8
2016-Sep-26 02:47 032 0 gusting 8 17.8
2016-Sep-26 02:32 029 1 gusting 10 17.8
2016-Sep-26 02:17 036 5 gusting 11 18.3
2016-Sep-26 02:02 098 3 gusting 10 17.8
2016-Sep-26 01:47 347 4 gusting 6 17.8
2016-Sep-26 01:32 035 6 gusting 11 17.8
2016-Sep-26 01:17 044 9 gusting 12 17.8
2016-Sep-26 01:02 055 6 gusting 11 17.8
2016-Sep-26 00:47 026 6 gusting 11 18.3
2016-Sep-26 00:32 053 7 gusting 10 18.3
2016-Sep-26 00:17 045 10 gusting 14 18.3
2016-Sep-26 00:02 050 6 gusting 13 18.9
2016-Sep-25 23:47 014 6 gusting 13 18.9
2016-Sep-25 23:32 023 6 gusting 14 18.9
2016-Sep-25 23:17 057 8 gusting 13 18.9
2016-Sep-25 23:02 046 7 gusting 12 19.4
2016-Sep-25 22:47 023 8 gusting 14 19.4
2016-Sep-25 22:32 049 9 gusting 13 19.4
2016-Sep-25 22:17 051 8 gusting 12 20.0
2016-Sep-25 22:02 037 7 gusting 12 20.6
2016-Sep-25 21:47 001 6 gusting 10 21.1
2016-Sep-25 21:32 030 5 gusting 7 21.7
2016-Sep-25 21:17 041 2 gusting 4 21.1
2016-Sep-25 21:02 027 1 gusting 5 21.1
2016-Sep-25 20:47 323 21.1
2016-Sep-25 20:32 323 21.1
2016-Sep-25 20:17 323 21.7
2016-Sep-25 20:02 323 22.2
2016-Sep-25 19:47 285 22.2
2016-Sep-25 19:32 255 22.8
2016-Sep-25 19:17 254 23.3
2016-Sep-25 19:02 262 23.3
2016-Sep-25 18:47 247 23.3
2016-Sep-25 18:32 246 23.3
2016-Sep-25 18:17 174 23.3
2016-Sep-25 18:02 260 23.9
2016-Sep-25 17:47 195 24.4
2016-Sep-25 17:32 231 24.4
2016-Sep-25 17:17 165 25.0
2016-Sep-25 17:02 225 25.6
2016-Sep-25 16:47 239 25.6
2016-Sep-25 16:32 219 26.1
2016-Sep-25 16:17 151 2 gusting 8 26.1
2016-Sep-25 16:02 233 2 gusting 5 26.1
2016-Sep-25 15:47 202 6 gusting 8 25.6
2016-Sep-25 15:32 274 26.1
2016-Sep-25 15:17 160 2 gusting 5 26.1
2016-Sep-25 15:02 129 0 gusting 8 25.6
2016-Sep-25 14:47 124 26.1
2016-Sep-25 14:32 145 25.6
2016-Sep-25 14:17 228 25.6
2016-Sep-25 14:02 181 25.6
2016-Sep-25 13:47 076 25.6
2016-Sep-25 13:32 166 25.0
2016-Sep-25 13:17 043 24.4
2016-Sep-25 13:02 139 23.9
2016-Sep-25 12:47 148 0 gusting 5 24.4
2016-Sep-25 12:32 103 1 gusting 7 25.0
2016-Sep-25 12:17 231 23.9
2016-Sep-25 12:02 176 4 gusting 7 23.9
2016-Sep-25 11:47 153 0 gusting 4 23.3
2016-Sep-25 11:32 114 23.3
2016-Sep-25 11:17 163 23.3
2016-Sep-25 11:02 176 3 gusting 6 22.2
2016-Sep-25 10:47 077 22.2
2016-Sep-25 10:32 142 22.2
2016-Sep-25 10:17 179 21.7
2016-Sep-25 10:02 108 21.1
2016-Sep-25 09:47 050 20.6
2016-Sep-25 09:32 146 20.6
2016-Sep-25 09:17 155 20.6
2016-Sep-25 09:02 091 19.4
2016-Sep-25 08:47 103 0 gusting 2 20.0
2016-Sep-25 08:32 014 18.9
2016-Sep-25 08:17 160 18.3
2016-Sep-25 08:02 073 17.2
2016-Sep-25 07:47 155 17.2
2016-Sep-25 07:32 117 17.2
2016-Sep-25 07:17 091 0 gusting 3 17.2
2016-Sep-25 07:02 117 2 gusting 5 16.7
2016-Sep-25 06:47 073 16.7
2016-Sep-25 06:32 120 16.7
2016-Sep-25 06:17 040 16.7
2016-Sep-25 06:02 094 0 gusting 3 16.7
2016-Sep-25 05:47 101 0 gusting 4 16.7
2016-Sep-25 05:32 155 16.7
2016-Sep-25 05:17 112 16.7
2016-Sep-25 05:02 120 16.7
2016-Sep-25 04:47 137 0 gusting 4 16.7
2016-Sep-25 04:32 079 0 gusting 5 16.7
2016-Sep-25 04:17 043 2 gusting 6 17.8
2016-Sep-25 04:02 096 18.3
2016-Sep-25 03:47 108 18.3
2016-Sep-25 03:32 108 17.8
2016-Sep-25 03:17 096 18.3
2016-Sep-25 03:02 153 18.3
2016-Sep-25 02:47 105 17.2
2016-Sep-25 02:32 145 16.7
2016-Sep-25 02:17 281 17.2
2016-Sep-25 02:02 005 17.2
2016-Sep-25 01:47 298 17.8
2016-Sep-25 01:32 300 18.3
2016-Sep-25 01:17 300 18.9
2016-Sep-25 01:02 299 18.3
2016-Sep-25 00:47 297 18.3
2016-Sep-25 00:32 297 18.9
2016-Sep-25 00:17 278 20.0
2016-Sep-25 00:02 177 20.6
2016-Sep-24 23:47 153 20.6
2016-Sep-24 23:32 164 20.6
2016-Sep-24 23:17 186 20.6
2016-Sep-24 23:02 211 20.6
2016-Sep-24 22:47 233 21.1
2016-Sep-24 22:32 206 21.1
2016-Sep-24 22:17 225 21.1
2016-Sep-24 22:02 212 21.1
2016-Sep-24 21:47 218 21.1
2016-Sep-24 21:32 255 22.2
2016-Sep-24 21:17 208 22.8
2016-Sep-24 21:02 191 22.8
2016-Sep-24 20:47 177 22.8
2016-Sep-24 20:32 191 22.8
2016-Sep-24 20:17 155 22.8
2016-Sep-24 20:02 165 22.8
2016-Sep-24 19:47 198 23.3
2016-Sep-24 19:32 159 23.3
2016-Sep-24 19:17 153 23.3
2016-Sep-24 19:02 239 23.9
2016-Sep-24 18:47 208 23.9
2016-Sep-24 18:32 224 23.9
2016-Sep-24 18:17 182 24.4
2016-Sep-24 18:02 176 24.4
2016-Sep-24 17:47 207 25.0
2016-Sep-24 17:32 180 2 gusting 6 25.0
2016-Sep-24 17:17 170 25.0
2016-Sep-24 17:02 172 25.6
2016-Sep-24 16:47 174 1 gusting 6 25.6
2016-Sep-24 16:32 236 4 gusting 10 25.6
2016-Sep-24 16:17 191 4 gusting 10 25.6
2016-Sep-24 16:02 212 6 gusting 12 26.1
2016-Sep-24 15:47 253 26.1
2016-Sep-24 15:32 249 2 gusting 9 26.1
2016-Sep-24 15:17 179 0 gusting 7 26.1
2016-Sep-24 15:02 235 26.1
2016-Sep-24 14:47 198 5 gusting 8 26.1
2016-Sep-24 14:32 190 0 gusting 8 26.1
2016-Sep-24 14:17 184 26.1
2016-Sep-24 14:02 165 26.1
2016-Sep-24 13:47 207 5 gusting 11 25.6
2016-Sep-24 13:32 191 25.0
2016-Sep-24 13:17 233 2 gusting 8 25.6
2016-Sep-24 13:02 267 1 gusting 10 25.0
2016-Sep-24 12:47 153 0 gusting 9 25.0
2016-Sep-24 12:32 219 2 gusting 6 25.6
2016-Sep-24 12:17 216 0 gusting 7 25.0
2016-Sep-24 12:02 093 24.4
2016-Sep-24 11:47 120 1 gusting 6 24.4
2016-Sep-24 11:32 160 0 gusting 6 23.9
2016-Sep-24 11:17 137 22.8
2016-Sep-24 11:02 089 23.3
2016-Sep-24 10:47 089 22.2
2016-Sep-24 10:32 108 22.2
2016-Sep-24 10:17 070 22.2
2016-Sep-24 10:02 163 0 gusting 3 21.1
2016-Sep-24 09:47 124 21.1
2016-Sep-24 09:32 060 2 gusting 4 20.6
2016-Sep-24 09:17 151 20.6
2016-Sep-24 09:02 338 21.1
2016-Sep-24 08:47 121 20.0
2016-Sep-24 08:32 148 20.0
2016-Sep-24 08:17 083 18.9
2016-Sep-24 08:02 043 18.3
2016-Sep-24 07:47 073 17.8
2016-Sep-24 07:32 021 16.7
2016-Sep-24 07:17 065 1 gusting 6 16.7
2016-Sep-24 07:02 053 16.1
2016-Sep-24 06:47 115 16.1
2016-Sep-24 06:32 086 15.6
2016-Sep-24 06:17 025 15.6
2016-Sep-24 06:02 068 15.6
2016-Sep-24 05:47 070 16.1
2016-Sep-24 05:32 082 16.1
2016-Sep-24 05:17 012 16.7
2016-Sep-24 05:02 041 16.7